CEB4769 RPVA-RPMD

Flight info

Callsign CEB4769
Flight time 0h 47m
Altitude 31000
Route BANWA5N BANWA W9 RIMAR RIMAR2R
Aircraft A21N/M-L/LB1

Departure

Time 2026-04-17 04:19
Airport Daniel Z. Romualdez Airport (RPVA)

Arrival

Time 2026-04-17 05:07
Airport Francisco Bangoy International Airport (RPMD)
Time Latitude Longitude Altitude Speed Heading
2026-04-17 03:55 11.22681 125.02654 20 ft 0 kts 312°
2026-04-17 04:08 11.22682 125.02653 20 ft 0 kts 323°
2026-04-17 04:09 11.22684 125.02653 20 ft 0 kts 355°
2026-04-17 04:09 11.22687 125.02655 20 ft 0 kts 43°
2026-04-17 04:09 11.22687 125.02660 20 ft 0 kts 101°
2026-04-17 04:09 11.22681 125.02667 20 ft 1 kts 132°
2026-04-17 04:10 11.22668 125.02678 20 ft 2 kts 148°
2026-04-17 04:10 11.22650 125.02684 20 ft 3 kts 175°
2026-04-17 04:10 11.22625 125.02684 20 ft 3 kts 177°
2026-04-17 04:10 11.22597 125.02689 20 ft 4 kts 162°
2026-04-17 04:11 11.22574 125.02711 20 ft 5 kts 117°
2026-04-17 04:11 11.22560 125.02747 20 ft 5 kts 121°
2026-04-17 04:11 11.22523 125.02758 20 ft 6 kts 183°
2026-04-17 04:11 11.22478 125.02756 20 ft 6 kts 183°
2026-04-17 04:12 11.22435 125.02753 21 ft 6 kts 184°
2026-04-17 04:12 11.22389 125.02750 21 ft 6 kts 183°
2026-04-17 04:12 11.22341 125.02747 21 ft 7 kts 183°
2026-04-17 04:12 11.22289 125.02744 21 ft 7 kts 182°
2026-04-17 04:13 11.22235 125.02742 21 ft 7 kts 182°
2026-04-17 04:13 11.22221 125.02741 21 ft 0 kts 185°
2026-04-17 04:14 11.22219 125.02741 21 ft 0 kts 185°
2026-04-17 04:15 11.22210 125.02740 21 ft 2 kts 185°
2026-04-17 04:15 11.22186 125.02737 21 ft 4 kts 185°
2026-04-17 04:15 11.22149 125.02734 21 ft 5 kts 185°
2026-04-17 04:15 11.22109 125.02731 21 ft 5 kts 184°
2026-04-17 04:16 11.22066 125.02728 21 ft 6 kts 184°
2026-04-17 04:16 11.22020 125.02724 21 ft 6 kts 183°
2026-04-17 04:16 11.21971 125.02722 22 ft 7 kts 183°
2026-04-17 04:16 11.21922 125.02718 22 ft 6 kts 184°
2026-04-17 04:17 11.21890 125.02721 22 ft 4 kts 165°
2026-04-17 04:17 11.21859 125.02734 22 ft 5 kts 155°
2026-04-17 04:17 11.21822 125.02742 22 ft 4 kts 188°
2026-04-17 04:17 11.21815 125.02725 22 ft 3 kts 303°
2026-04-17 04:18 11.21839 125.02716 22 ft 4 kts 343°
2026-04-17 04:18 11.21849 125.02715 22 ft 0 kts
2026-04-17 04:19 11.21898 125.02718 22 ft 35 kts
2026-04-17 04:19 11.22445 125.02754 21 ft 118 kts
2026-04-17 04:19 11.23486 125.02825 149 ft 168 kts
2026-04-17 04:19 11.24644 125.02918 884 ft 167 kts
2026-04-17 04:20 11.25812 125.03010 1599 ft 174 kts
2026-04-17 04:20 11.27004 125.03079 2278 ft 171 kts
2026-04-17 04:20 11.28233 125.03154 2622 ft 183 kts
2026-04-17 04:20 11.29567 125.03239 2931 ft 199 kts
2026-04-17 04:21 11.30993 125.03332 3231 ft 215 kts
2026-04-17 04:21 11.32553 125.03460 3485 ft 234 kts 10°
2026-04-17 04:21 11.34079 125.04198 3741 ft 254 kts 41°
2026-04-17 04:21 11.35059 125.05730 4163 ft 269 kts 73°
2026-04-17 04:22 11.35322 125.07622 4871 ft 272 kts 86°
2026-04-17 04:22 11.35138 125.09551 5530 ft 278 kts 108°
2026-04-17 04:22 11.34083 125.11172 6171 ft 285 kts 137°
2026-04-17 04:22 11.32313 125.12125 6857 ft 289 kts 167°
2026-04-17 04:23 11.30314 125.12215 7522 ft 292 kts 182°
2026-04-17 04:23 11.28268 125.12122 8131 ft 296 kts 181°
2026-04-17 04:23 11.26193 125.12045 8732 ft 300 kts 180°
2026-04-17 04:23 11.24109 125.11977 9344 ft 302 kts 180°
2026-04-17 04:24 11.21974 125.11916 9924 ft 304 kts 180°
2026-04-17 04:24 11.19847 125.11861 10407 ft 310 kts 180°
2026-04-17 04:24 11.17649 125.11808 10671 ft 324 kts 180°
2026-04-17 04:24 11.15330 125.11752 10921 ft 338 kts 180°
2026-04-17 04:25 11.12952 125.11694 11306 ft 346 kts 180°
2026-04-17 04:25 11.10502 125.11632 11837 ft 349 kts 180°
2026-04-17 04:25 11.08085 125.11572 12357 ft 351 kts 180°
2026-04-17 04:25 11.05623 125.11512 12856 ft 353 kts 180°
2026-04-17 04:26 11.03156 125.11452 13349 ft 355 kts 180°
2026-04-17 04:26 11.00688 125.11391 13789 ft 358 kts 180°
2026-04-17 04:26 10.98159 125.11328 14283 ft 360 kts 180°
2026-04-17 04:26 10.95640 125.11266 14746 ft 362 kts 181°
2026-04-17 04:27 10.93133 125.11205 15197 ft 364 kts 181°
2026-04-17 04:27 10.90585 125.11141 15624 ft 367 kts 181°
2026-04-17 04:27 10.88029 125.11079 16025 ft 369 kts 181°
2026-04-17 04:27 10.85445 125.11016 16432 ft 372 kts 180°
2026-04-17 04:28 10.82850 125.11066 16824 ft 374 kts 176°
2026-04-17 04:28 10.80236 125.11343 17210 ft 376 kts 171°
2026-04-17 04:28 10.77637 125.11820 17590 ft 378 kts 168°
2026-04-17 04:28 10.75027 125.12346 17956 ft 381 kts 168°
2026-04-17 04:29 10.72430 125.12878 18310 ft 384 kts 168°
2026-04-17 04:29 10.69776 125.13422 18683 ft 386 kts 168°
2026-04-17 04:29 10.67156 125.13957 19059 ft 387 kts 168°
2026-04-17 04:29 10.64490 125.14498 19438 ft 389 kts 167°
2026-04-17 04:30 10.61827 125.15038 19790 ft 391 kts 168°
2026-04-17 04:30 10.59149 125.15581 20140 ft 393 kts 167°
2026-04-17 04:30 10.56449 125.16128 20458 ft 395 kts 167°
2026-04-17 04:30 10.53721 125.16680 20787 ft 397 kts 167°
2026-04-17 04:31 10.51022 125.17226 21101 ft 400 kts 167°
2026-04-17 04:31 10.48267 125.17782 21400 ft 402 kts 167°
2026-04-17 04:31 10.45488 125.18344 21714 ft 404 kts 167°
2026-04-17 04:31 10.42730 125.18902 22028 ft 406 kts 167°
2026-04-17 04:32 10.39949 125.19464 22331 ft 408 kts 167°
2026-04-17 04:32 10.37156 125.20029 22645 ft 410 kts 167°
2026-04-17 04:32 10.34351 125.20596 22955 ft 411 kts 167°
2026-04-17 04:32 10.31525 125.21168 23263 ft 412 kts 167°
2026-04-17 04:33 10.28711 125.21738 23559 ft 414 kts 167°
2026-04-17 04:33 10.25876 125.22309 23848 ft 416 kts 167°
2026-04-17 04:33 10.23025 125.22885 24133 ft 417 kts 167°
2026-04-17 04:33 10.20159 125.23464 24408 ft 419 kts 168°
2026-04-17 04:34 10.14415 125.24623 24931 ft 423 kts 168°
2026-04-17 04:34 10.11512 125.25208 25194 ft 424 kts 168°
2026-04-17 04:34 10.08581 125.25800 25474 ft 426 kts 168°
2026-04-17 04:35 10.05658 125.26389 25734 ft 427 kts 168°
2026-04-17 04:35 10.02737 125.26979 26001 ft 428 kts 168°
2026-04-17 04:35 9.99793 125.27572 26256 ft 429 kts 168°
2026-04-17 04:35 9.96839 125.28168 26510 ft 431 kts 168°
2026-04-17 04:36 9.93883 125.28764 26761 ft 432 kts 168°
2026-04-17 04:36 9.90922 125.29362 26989 ft 433 kts 168°
2026-04-17 04:36 9.87957 125.29958 27222 ft 435 kts 169°
2026-04-17 04:36 9.84998 125.30554 27456 ft 436 kts 169°
2026-04-17 04:37 9.81995 125.31159 27694 ft 437 kts 169°
2026-04-17 04:37 9.79000 125.31763 27920 ft 438 kts 169°
2026-04-17 04:37 9.76014 125.32365 28116 ft 440 kts 169°
2026-04-17 04:37 9.73007 125.32970 28306 ft 442 kts 169°
2026-04-17 04:38 9.69946 125.33586 28495 ft 444 kts 169°
2026-04-17 04:38 9.66926 125.34193 28709 ft 445 kts 169°
2026-04-17 04:38 9.63862 125.34800 28943 ft 447 kts 169°
2026-04-17 04:38 9.60820 125.35399 29161 ft 448 kts 169°
2026-04-17 04:39 9.57732 125.36006 29378 ft 450 kts 169°
2026-04-17 04:39 9.54627 125.36619 29593 ft 451 kts 169°
2026-04-17 04:39 9.51536 125.37229 29813 ft 453 kts 169°
2026-04-17 04:39 9.48471 125.37834 30025 ft 454 kts 168°
2026-04-17 04:40 9.45322 125.38456 30234 ft 456 kts 168°
2026-04-17 04:40 9.42218 125.39069 30452 ft 457 kts 168°
2026-04-17 04:40 9.39051 125.39696 30668 ft 459 kts 168°
2026-04-17 04:40 9.35897 125.40320 30861 ft 460 kts 168°
2026-04-17 04:41 9.29593 125.41567 30896 ft 461 kts 168°
2026-04-17 04:41 9.23304 125.42810 30896 ft 461 kts 168°
2026-04-17 04:42 9.16950 125.44067 30899 ft 460 kts 168°
2026-04-17 04:42 9.10644 125.45313 30897 ft 460 kts 168°
2026-04-17 04:43 9.04320 125.46563 30895 ft 461 kts 168°
2026-04-17 04:43 8.98007 125.47809 30894 ft 460 kts 168°
2026-04-17 04:44 8.91639 125.48731 30901 ft 461 kts 173°
2026-04-17 04:44 8.85266 125.49379 30904 ft 461 kts 173°
2026-04-17 04:45 8.78828 125.50028 30907 ft 461 kts 173°
2026-04-17 04:45 8.72402 125.50678 30909 ft 461 kts 173°
2026-04-17 04:46 8.69229 125.51000 30648 ft 463 kts 173°
2026-04-17 04:46 8.65997 125.51331 29897 ft 464 kts 174°
2026-04-17 04:46 8.62781 125.51659 29403 ft 459 kts 174°
2026-04-17 04:46 8.59623 125.51981 28921 ft 454 kts 174°
2026-04-17 04:47 8.56500 125.52298 28448 ft 449 kts 174°
2026-04-17 04:47 8.53391 125.52613 27987 ft 445 kts 174°
2026-04-17 04:47 8.50318 125.52909 27535 ft 441 kts 174°
2026-04-17 04:47 8.47266 125.53182 27086 ft 438 kts 175°
2026-04-17 04:48 8.44240 125.53448 26633 ft 434 kts 175°
2026-04-17 04:48 8.41231 125.53713 26183 ft 431 kts 175°
2026-04-17 04:48 8.38251 125.53978 25736 ft 427 kts 174°
2026-04-17 04:48 8.35300 125.54241 25285 ft 424 kts 174°
2026-04-17 04:49 8.32363 125.54504 24837 ft 421 kts 174°
2026-04-17 04:49 8.29460 125.54765 24389 ft 418 kts 174°
2026-04-17 04:49 8.26568 125.55024 23941 ft 416 kts 174°
2026-04-17 04:49 8.23655 125.55286 23483 ft 413 kts 174°
2026-04-17 04:50 8.20791 125.55543 23029 ft 411 kts 174°
2026-04-17 04:50 8.17972 125.55795 22568 ft 409 kts 174°
2026-04-17 04:50 8.15141 125.56050 22103 ft 407 kts 174°
2026-04-17 04:50 8.12295 125.56306 21645 ft 405 kts 174°
2026-04-17 04:51 8.09504 125.56558 21190 ft 403 kts 175°
2026-04-17 04:51 8.06726 125.56808 20731 ft 401 kts 175°
2026-04-17 04:51 8.03929 125.57059 20268 ft 399 kts 175°
2026-04-17 04:51 8.01161 125.57307 19806 ft 397 kts 175°
2026-04-17 04:52 7.98383 125.57471 19334 ft 395 kts 181°
2026-04-17 04:52 7.95653 125.57240 18879 ft 393 kts 189°
2026-04-17 04:52 7.92987 125.56615 18416 ft 387 kts 196°
2026-04-17 04:52 7.90429 125.55868 17965 ft 380 kts 197°
2026-04-17 04:53 7.87916 125.55112 17532 ft 373 kts 197°
2026-04-17 04:53 7.85433 125.54368 17094 ft 366 kts 197°
2026-04-17 04:53 7.82993 125.53642 16652 ft 362 kts 197°
2026-04-17 04:55 7.66186 125.48696 13635 ft 354 kts 197°
2026-04-17 04:55 7.63803 125.47997 13200 ft 354 kts 197°
2026-04-17 04:55 7.61437 125.47304 12775 ft 352 kts 197°
2026-04-17 04:56 7.59112 125.46623 12331 ft 351 kts 197°
2026-04-17 04:56 7.56748 125.45931 11914 ft 349 kts 197°
2026-04-17 04:56 7.54411 125.45245 11468 ft 348 kts 197°
2026-04-17 04:56 7.52867 125.44794 11177 ft 347 kts 197°
2026-04-17 04:57 7.49756 125.43882 10600 ft 345 kts 197°
2026-04-17 04:57 7.47493 125.43220 10370 ft 336 kts 197°
2026-04-17 04:57 7.45265 125.42569 10243 ft 324 kts 197°
2026-04-17 04:57 7.43139 125.41947 10122 ft 312 kts 197°
2026-04-17 04:58 7.41055 125.41338 9868 ft 306 kts 197°
2026-04-17 04:58 7.39019 125.40741 9480 ft 305 kts 197°
2026-04-17 04:58 7.36984 125.40145 9103 ft 304 kts 197°
2026-04-17 04:58 7.34931 125.39608 8713 ft 302 kts 188°
2026-04-17 04:59 7.32842 125.39576 8347 ft 300 kts 172°
2026-04-17 04:59 7.30791 125.39960 7994 ft 297 kts 167°
2026-04-17 04:59 7.28784 125.40413 7642 ft 295 kts 167°
2026-04-17 04:59 7.26774 125.40866 7270 ft 289 kts 167°
2026-04-17 05:00 7.24813 125.41297 6913 ft 286 kts 167°
2026-04-17 05:00 7.22879 125.41714 6573 ft 284 kts 167°
2026-04-17 05:00 7.20925 125.42131 6220 ft 283 kts 167°
2026-04-17 05:00 7.19002 125.42538 5880 ft 282 kts 167°
2026-04-17 05:01 7.17071 125.42946 5546 ft 281 kts 168°
2026-04-17 05:01 7.15161 125.43348 5205 ft 279 kts 168°
2026-04-17 05:01 7.13274 125.43746 4872 ft 278 kts 167°
2026-04-17 05:01 7.11369 125.44147 4539 ft 276 kts 167°
2026-04-17 05:02 7.09495 125.44543 4214 ft 274 kts 167°
2026-04-17 05:02 7.07635 125.44965 3990 ft 268 kts 161°
2026-04-17 05:02 7.06025 125.45767 3912 ft 256 kts 143°
2026-04-17 05:02 7.04653 125.46890 3750 ft 247 kts 138°
2026-04-17 05:03 7.03385 125.48013 3599 ft 237 kts 137°
2026-04-17 05:03 7.02167 125.49091 3448 ft 230 kts 138°
2026-04-17 05:03 7.01117 125.50277 3226 ft 228 kts 112°
2026-04-17 05:03 7.00971 125.51828 3034 ft 225 kts 72°
2026-04-17 05:04 7.01867 125.53113 2912 ft 226 kts 41°
2026-04-17 05:04 7.03050 125.54090 2791 ft 215 kts 40°
2026-04-17 05:04 7.04178 125.55112 2387 ft 215 kts 44°
2026-04-17 05:04 7.05227 125.56179 2036 ft 209 kts 47°
2026-04-17 05:05 7.06179 125.57219 1774 ft 191 kts 48°
2026-04-17 05:05 7.07027 125.58173 1490 ft 176 kts 49°
2026-04-17 05:05 7.07805 125.59069 1229 ft 160 kts 49°
2026-04-17 05:05 7.08500 125.59873 1015 ft 148 kts 49°
2026-04-17 05:06 7.09171 125.60651 842 ft 146 kts 49°
2026-04-17 05:06 7.09842 125.61432 663 ft 146 kts 49°
2026-04-17 05:06 7.10504 125.62206 464 ft 146 kts 48°
2026-04-17 05:06 7.11176 125.62985 277 ft 146 kts 48°
2026-04-17 05:07 7.11835 125.63744 127 ft 142 kts 49°
2026-04-17 05:07 7.12413 125.64410 117 ft 105 kts 53°
2026-04-17 05:07 7.12775 125.64839 117 ft 48 kts 49°
2026-04-17 05:07 7.12860 125.64920 117 ft 11 kts
2026-04-17 05:08 7.12928 125.64880 117 ft 7 kts 319°
2026-04-17 05:08 7.12934 125.64874 117 ft 0 kts 319°
2026-04-17 05:08 7.12941 125.64869 117 ft 1 kts 319°
2026-04-17 05:08 7.12954 125.64857 117 ft 3 kts 319°
2026-04-17 05:09 7.12974 125.64840 117 ft 4 kts 318°
2026-04-17 05:09 7.04213 125.47276 3696 ft 243 kts 137°